[[{"header":{"parameterUnit":"m.s-1","parameterCategory":1,"la1":30.2991,"la2":30.254,"lo1":-89.0895,"lo2":-89.0444,"dy":0.0017,"dx":0.0017,"nx":28,"ny":28,"refTime":"2025-07-12T21:00:00:Z","depth":0,"parameterNumber":2,"parameterNumberName":"U-component_of_WINDS"},"data":[0,0,0,0,0,0,0,0,0,0,0,0,0,0,0,0,0,0,0,0,0,0,0,0,0,0,0,0,0,0,0,0,0,0,0,0,0,0,0,0,0,0,0,0,0,0,0,0,0,0,0,0,0,0,0,0,0,0,1.493,1.493,0,1.4984,1.4985,1.4985,1.4978,1.4977,1.4976,1.4975,1.503,1.5032,1.5034,0,0,0,0,0,0,0,0,0,0,0,0,0,1.4816,1.4818,1.4929,1.493,1.4931,1.4984,1.4985,1.4986,1.4978,1.4977,1.4976,1.4975,1.5029,1.5032,1.5035,0,0,0,0,0,0,0,0,0,0,0,0,0,1.4867,1.4819,1.4929,1.4933,1.4934,1.4984,1.4985,1.4986,1.4978,1.4977,1.4975,1.4974,1.5028,1.5032,1.5035,1.5084,0,0,1.5046,1.5047,0,0,0,0,0,0,0,0,1.4864,1.4871,1.4932,1.4933,1.4934,1.4973,1.4965,1.5019,1.4979,1.4962,1.4975,1.4974,1.5012,1.5017,1.503,1.5086,1.5089,1.5046,1.5048,1.505,1.5051,0,0,0,0,0,0,0,1.4861,1.4869,1.4951,1.4933,1.4934,1.4932,1.4938,1.4975,1.4994,1.4963,1.4962,1.4969,1.5012,1.5027,1.5031,1.5089,1.5046,1.5049,1.5051,1.5052,1.5185,1.5187,0,0,0,0,0,0,1.4856,1.4866,1.4949,1.4953,1.4895,1.4935,1.4941,1.4962,1.4993,1.4997,1.497,1.4969,1.5021,1.5027,1.5033,1.509,1.505,1.5053,1.5055,1.5184,1.5186,1.5187,0,0,0,0,0,0,1.4854,1.4864,1.4947,1.4909,1.492,1.4938,1.4961,1.4964,1.4978,1.4999,1.5002,1.4982,1.502,1.5028,1.5071,1.5092,1.5054,1.5057,1.5182,1.5185,1.5187,1.5205,0,0,0,0,0,0,1.4851,1.4863,1.4883,1.491,1.4922,1.4985,1.4963,1.4966,1.4984,1.4982,1.501,1.5014,1.502,1.5065,1.5074,1.5096,1.506,1.518,1.5183,1.5186,1.5203,1.5208,1.5212,0,0,0,0,0,1.4847,1.4886,1.4884,1.4894,1.4947,1.4986,1.4993,1.5,1.4986,1.5005,1.5018,1.5013,1.5088,1.507,1.5079,1.5103,1.5179,1.5183,1.5186,1.5201,1.5207,1.5212,0,0,0,0,0,0,1.4861,1.489,1.4887,1.4937,1.4959,1.4985,1.5009,1.5006,1.5033,1.503,1.5037,1.5043,1.5086,1.5099,1.5078,1.515,1.5132,1.5137,1.514,1.5146,1.515,1.5146,1.5063,0,0,0,0,0,1.487,1.49,1.4923,1.4964,1.4976,1.499,1.5008,1.5011,1.5034,1.5043,1.506,1.5082,1.511,1.5129,1.5157,1.5205,1.521,1.5226,1.523,1.5234,1.5238,1.5262,1.5268,1.5198,1.5198,1.5198,0,0,1.4888,1.4908,1.4926,1.4968,1.4985,1.5015,1.4998,1.5031,1.5053,1.5048,1.5089,1.5102,1.5127,1.5171,1.5192,1.5183,1.5258,1.5238,1.5241,1.5243,1.5266,1.5273,1.5278,1.52,1.52,1.52,0,0,1.4937,1.4955,1.4991,1.5008,1.5035,1.5044,1.5052,1.5078,1.5086,1.5127,1.5124,1.5149,1.5199,1.5216,1.5232,1.5285,1.528,1.5294,1.5317,1.5341,1.5346,1.5351,1.5368,1.5374,1.5298,1.5298,1.5298,0,1.4956,1.5002,1.5009,1.5042,1.5059,1.5056,1.5091,1.5107,1.5142,1.5153,1.5143,1.5204,1.5221,1.5268,1.5281,1.5295,1.5303,1.529,1.5345,1.535,1.5355,1.5371,1.5377,1.5299,1.5299,1.5299,1.5299,0,1.5023,1.5055,1.508,1.5112,1.5132,1.5166,1.5177,1.5197,1.5198,1.5208,1.5248,1.5268,1.5299,1.5311,1.5313,1.5358,1.5352,1.5343,1.5325,1.5362,1.5378,1.5384,1.5301,1.5301,1.53,1.53,0,0,1.5082,1.5117,1.5126,1.514,1.5168,1.5192,1.5225,1.5255,1.527,1.5294,1.532,1.5361,1.5353,1.537,1.5374,1.5395,1.5433,1.5384,1.5384,1.539,1.5481,1.5486,1.5493,1.543,1.5432,1.5433,1.5479,0,1.5132,1.519,1.5196,1.5247,1.5275,1.5272,1.53,1.532,1.533,1.5354,1.5365,1.5393,1.5382,1.5392,1.5412,1.5424,1.5451,1.5421,1.5453,1.5454,1.5445,1.5502,1.5507,1.5549,1.5485,1.5486,1.5487,0,1.5198,1.5222,1.5276,1.5298,1.531,1.5335,1.5362,1.5386,1.5408,1.5413,1.5432,1.5432,1.5464,1.5445,1.5489,1.5468,1.5482,1.549,1.5491,1.5493,1.5472,1.5503,1.5563,1.5569,1.5496,1.5496,1.5495,0,1.5232,1.5279,1.5316,1.5329,1.5356,1.5374,1.5386,1.5407,1.5423,1.5446,1.5457,1.5484,1.5498,1.5518,1.5525,1.5511,1.5568,1.555,1.5572,1.5571,1.5582,1.5581,1.5644,1.5594,1.5594,1.5594,1.5594,0,1.5286,1.5319,1.5332,1.5355,1.5391,1.5398,1.5432,1.5444,1.5462,1.5486,1.5485,1.5508,1.5517,1.554,1.5546,1.558,1.5587,1.5591,1.5592,1.559,1.5589,1.5598,1.5595,1.5596,1.5596,1.5595,1.5595,0,1.5331,1.5341,1.5382,1.5404,1.5411,1.5436,1.5454,1.5476,1.5485,1.5515,1.5523,1.5537,1.5564,1.5574,1.5608,1.5611,1.565,1.5649,1.5642,1.5642,1.5662,1.566,1.5731,1.574,1.5687,1.5687,1.5688,0,1.5363,1.5388,1.5413,1.5429,1.5442,1.5468,1.5484,1.5492,1.5509,1.5535,1.5552,1.558,1.5602,1.5646,1.5659,1.5684,1.5682,1.5706,1.5686,1.5683,1.568,1.5678,1.5679,1.5709,1.571,1.571,1.571,0,1.542,1.5423,1.5447,1.5473,1.5493,1.5514,1.5533,1.5546,1.5556,1.5576,1.5604,1.5621,1.5654,1.5681,1.5706,1.5718,1.5715,1.5717,1.5722,1.572,1.5714,1.5715,1.565,1.5715,1.5714,1.5714,1.5714,1.5713,1.5458,1.5479,1.5499,1.5525,1.5541,1.5559,1.5579,1.5591,1.5614,1.5642,1.5645,1.5674,1.5694,1.5727,1.574,1.5763,1.5756,1.5765,1.5767,1.5769,1.5769,1.5712,1.5768,1.5768,1.5767,1.5767,1.5767,0,1.5512,1.5525,1.5549,1.5576,1.5596,1.5593,1.5614,1.5631,1.5657,1.5675,1.5696,1.5727,1.5753,1.5767,1.5792,1.5807,1.5806,1.5813,1.5811,1.5813,1.5775,1.5766,1.5813,1.5813,1.5813,1.5813,1.5813,1.5813,1.5543,1.5577,1.5583,1.5624,1.5636,1.5665,1.5677,1.5693,1.5707,1.5742,1.5763,1.5772,1.5788,1.5814,1.5836,1.584,1.5848,1.5855,1.5858,1.5821,1.5817,1.5812,1.5804,1.5858,1.5858,1.5894,1.5895,1.5895]},{"header":{"parameterUnit":"m.s-1","parameterCategory":1,"la1":30.2991,"la2":30.254,"lo1":-89.0895,"lo2":-89.0444,"dy":0.0017,"dx":0.0017,"nx":28,"ny":28,"refTime":"2025-07-12T21:00:00:Z","depth":0,"parameterNumber":3,"parameterNumberName":"V-component_of_WINDS"},"data":[0,0,0,0,0,0,0,0,0,0,0,0,0,0,0,0,0,0,0,0,0,0,0,0,0,0,0,0,0,0,0,0,0,0,0,0,0,0,0,0,0,0,0,0,0,0,0,0,0,0,0,0,0,0,0,0,0,0,0.4737,0.4736,0,0.4655,0.4654,0.4653,0.4586,0.4585,0.4585,0.4584,0.4498,0.4497,0.4495,0,0,0,0,0,0,0,0,0,0,0,0,0,0.4835,0.4833,0.4737,0.4736,0.4735,0.4655,0.4654,0.4653,0.4586,0.4585,0.4585,0.4584,0.4499,0.4497,0.4495,0,0,0,0,0,0,0,0,0,0,0,0,0,0.4776,0.4833,0.4738,0.4692,0.4688,0.4655,0.4654,0.4652,0.4586,0.4585,0.4584,0.4583,0.45,0.4497,0.4495,0.45,0,0,0.4487,0.4486,0,0,0,0,0,0,0,0,0.478,0.4773,0.47,0.4695,0.469,0.463,0.4657,0.4601,0.4587,0.4625,0.4584,0.4583,0.4543,0.4537,0.4524,0.4496,0.4492,0.4487,0.4486,0.4484,0.4484,0,0,0,0,0,0,0,0.4784,0.4776,0.4705,0.4699,0.4693,0.4675,0.4666,0.4646,0.4591,0.4621,0.4616,0.4608,0.454,0.4526,0.4521,0.4491,0.4487,0.4485,0.4483,0.4482,0.4462,0.4463,0,0,0,0,0,0,0.4795,0.478,0.4707,0.4702,0.4733,0.4675,0.4664,0.465,0.4591,0.4581,0.4609,0.4605,0.4531,0.4524,0.4518,0.4519,0.4484,0.4482,0.4481,0.4461,0.4462,0.4463,0,0,0,0,0,0,0.4797,0.4789,0.4711,0.474,0.4728,0.4674,0.4659,0.4649,0.4635,0.4581,0.4571,0.4605,0.453,0.4521,0.4505,0.4515,0.4481,0.4479,0.446,0.4462,0.4463,0.4523,0,0,0,0,0,0,0.4801,0.4791,0.4793,0.474,0.4727,0.47,0.466,0.4648,0.4631,0.4626,0.4575,0.4565,0.4528,0.4509,0.4502,0.4511,0.4477,0.4459,0.4461,0.4462,0.452,0.4526,0.4532,0,0,0,0,0,0.4804,0.4813,0.4793,0.4785,0.4729,0.4701,0.4693,0.4651,0.4632,0.4634,0.4598,0.4567,0.4515,0.4508,0.45,0.4508,0.4458,0.446,0.4462,0.4517,0.4525,0.4532,0,0,0,0,0,0,0.4868,0.4805,0.4783,0.4775,0.4744,0.469,0.469,0.4661,0.4634,0.463,0.4578,0.4567,0.4556,0.453,0.4523,0.4509,0.4482,0.4483,0.4527,0.4534,0.454,0.4546,0.4475,0,0,0,0,0,0.4881,0.4865,0.481,0.4808,0.4794,0.4745,0.4731,0.4701,0.4666,0.4653,0.4617,0.4584,0.456,0.4545,0.452,0.4515,0.4503,0.4517,0.4523,0.4528,0.453,0.4524,0.4529,0.447,0.447,0.447,0,0,0.4909,0.4872,0.4865,0.482,0.4793,0.4776,0.4734,0.4718,0.4705,0.465,0.4632,0.4605,0.4564,0.4553,0.4547,0.4532,0.4543,0.4531,0.4536,0.4534,0.4527,0.4532,0.4537,0.4472,0.4471,0.4471,0,0,0.4949,0.492,0.4915,0.4888,0.4847,0.4814,0.4812,0.4762,0.4742,0.4723,0.4681,0.4664,0.4624,0.4597,0.4578,0.4607,0.4576,0.46,0.4631,0.4627,0.4631,0.4635,0.4645,0.4649,0.4601,0.4601,0.4602,0,0.4988,0.4961,0.4916,0.4902,0.4884,0.4833,0.4827,0.4803,0.4755,0.4743,0.4727,0.4675,0.4645,0.4626,0.4633,0.4619,0.4616,0.4606,0.4634,0.4638,0.4641,0.4649,0.4653,0.4605,0.4604,0.4604,0.4604,0,0.5011,0.4993,0.4993,0.4949,0.493,0.492,0.4873,0.4859,0.483,0.4798,0.4779,0.474,0.4706,0.47,0.4672,0.4677,0.4669,0.4644,0.4616,0.465,0.4657,0.466,0.4609,0.4608,0.4607,0.4606,0,0,0.5091,0.502,0.5021,0.5,0.495,0.4934,0.4922,0.4888,0.4877,0.4846,0.4833,0.48,0.4777,0.4755,0.4723,0.4719,0.4743,0.4694,0.4692,0.4704,0.4745,0.4764,0.4769,0.4722,0.4722,0.4723,0.4748,0,0.5123,0.5098,0.5056,0.5044,0.5026,0.4978,0.4966,0.4934,0.4903,0.4883,0.4849,0.4826,0.4798,0.4784,0.4778,0.4742,0.475,0.4739,0.4709,0.4709,0.4721,0.4772,0.4792,0.4818,0.4751,0.4751,0.4752,0,0.5158,0.5129,0.5116,0.5066,0.5057,0.5047,0.5013,0.4994,0.4956,0.4934,0.4909,0.4874,0.4857,0.4831,0.4806,0.4799,0.4784,0.4764,0.4764,0.476,0.4733,0.4769,0.4826,0.483,0.4756,0.4755,0.4755,0,0.5217,0.5175,0.5161,0.5144,0.5086,0.508,0.5055,0.5016,0.4998,0.4967,0.4955,0.4923,0.4906,0.4881,0.4838,0.4823,0.4817,0.4788,0.4798,0.4799,0.4799,0.48,0.4854,0.479,0.479,0.4789,0.4789,0,0.5257,0.5251,0.5186,0.5178,0.5169,0.512,0.5112,0.5082,0.5048,0.5032,0.4987,0.4973,0.4917,0.4896,0.4862,0.4846,0.4838,0.4819,0.481,0.4823,0.4826,0.4813,0.481,0.479,0.479,0.479,0.479,0,0.5322,0.5279,0.526,0.5206,0.5192,0.5188,0.5141,0.513,0.5097,0.5077,0.507,0.5017,0.499,0.4944,0.4904,0.4881,0.4871,0.4856,0.4884,0.4879,0.4891,0.4891,0.4939,0.4943,0.4877,0.4878,0.4878,0,0.5351,0.5345,0.529,0.5276,0.5253,0.5232,0.5213,0.5165,0.5147,0.5102,0.5097,0.5066,0.5039,0.4998,0.4955,0.4924,0.4907,0.4926,0.4902,0.4915,0.4907,0.4908,0.4907,0.4932,0.4933,0.4934,0.4935,0,0.5407,0.5385,0.5361,0.5328,0.5308,0.528,0.525,0.5241,0.5185,0.5167,0.5139,0.5118,0.5077,0.5046,0.5009,0.4982,0.4949,0.4942,0.4943,0.4956,0.4973,0.4964,0.4899,0.4942,0.4941,0.494,0.494,0.494,0.5454,0.5446,0.5406,0.5379,0.5351,0.5324,0.5311,0.5276,0.5252,0.5214,0.5187,0.516,0.512,0.5066,0.5041,0.5019,0.5004,0.5005,0.5005,0.5006,0.5011,0.4976,0.5012,0.5012,0.5011,0.5011,0.5011,0,0.5507,0.5478,0.5455,0.5414,0.5393,0.5364,0.5328,0.5313,0.529,0.5256,0.523,0.5197,0.5167,0.5122,0.5088,0.5079,0.5063,0.5072,0.5072,0.5066,0.5026,0.5029,0.5086,0.5086,0.5086,0.5086,0.5086,0.5086,0.5532,0.5516,0.549,0.546,0.5431,0.5405,0.5387,0.5361,0.5333,0.5299,0.5274,0.5245,0.5205,0.5168,0.5139,0.5127,0.5116,0.513,0.5113,0.5076,0.5069,0.5063,0.5065,0.5128,0.5128,0.5154,0.5155,0.5155]}]]